Year,Month,Day,Hour,Minute,Value (Times are PST for temperature in C)
2006,07,23,00,00,21.20
2006,07,23,00,01,21.20
2006,07,23,00,02,21.20
2006,07,23,00,03,21.20
2006,07,23,00,04,21.20
2006,07,23,00,05,21.20
2006,07,23,00,06,21.20
2006,07,23,00,07,21.20
2006,07,23,00,08,21.20
2006,07,23,00,09,21.20
2006,07,23,00,10,21.20
2006,07,23,00,11,21.20
2006,07,23,00,12,21.20
2006,07,23,00,13,21.20
2006,07,23,00,14,21.20
2006,07,23,00,15,21.20
2006,07,23,00,16,21.20
2006,07,23,00,17,21.20
2006,07,23,00,18,21.20
2006,07,23,00,19,21.20
2006,07,23,00,20,21.20
2006,07,23,00,21,21.20
2006,07,23,00,22,21.20
2006,07,23,00,23,21.20
2006,07,23,00,24,21.20
2006,07,23,00,25,21.20
2006,07,23,00,26,21.20
2006,07,23,00,27,21.20
2006,07,23,00,28,21.20
2006,07,23,00,29,21.20
2006,07,23,00,30,21.20
2006,07,23,00,31,21.20
2006,07,23,00,32,21.20
2006,07,23,00,33,21.20
2006,07,23,00,34,21.30
2006,07,23,00,35,21.30
2006,07,23,00,36,21.30
2006,07,23,00,37,21.30
2006,07,23,00,38,21.30
2006,07,23,00,39,21.30
2006,07,23,00,40,21.30
2006,07,23,00,41,21.30
2006,07,23,00,42,21.30
2006,07,23,00,43,21.30
2006,07,23,00,44,21.30
2006,07,23,00,45,21.30
2006,07,23,00,46,21.30
2006,07,23,00,47,21.30
2006,07,23,00,48,21.30
2006,07,23,00,49,21.30
2006,07,23,00,50,21.30
2006,07,23,00,51,21.30
2006,07,23,00,52,21.30
2006,07,23,00,53,21.30
2006,07,23,00,54,21.30
2006,07,23,00,55,21.30
2006,07,23,00,56,21.30
2006,07,23,00,57,21.30
2006,07,23,00,58,21.30
2006,07,23,00,59,21.30
2006,07,23,01,00,21.30
2006,07,23,01,01,21.30
2006,07,23,01,02,21.20
2006,07,23,01,03,21.20
2006,07,23,01,04,21.20
2006,07,23,01,05,21.20
2006,07,23,01,06,21.20
2006,07,23,01,07,21.10
2006,07,23,01,08,21.10
2006,07,23,01,09,21.10
2006,07,23,01,10,21.10
2006,07,23,01,11,21.10
2006,07,23,01,12,21.00
2006,07,23,01,13,21.00
2006,07,23,01,14,21.00
2006,07,23,01,15,21.00
2006,07,23,01,16,21.00
2006,07,23,01,17,21.00
2006,07,23,01,18,21.00
2006,07,23,01,19,20.90
2006,07,23,01,20,20.90
2006,07,23,01,21,20.90
2006,07,23,01,22,20.90
2006,07,23,01,23,20.90
2006,07,23,01,24,20.90
2006,07,23,01,25,20.90
2006,07,23,01,26,20.90
2006,07,23,01,27,20.90
2006,07,23,01,28,20.90
2006,07,23,01,29,20.90
2006,07,23,01,30,20.90
2006,07,23,01,31,20.90
2006,07,23,01,32,20.90
2006,07,23,01,33,20.90
2006,07,23,01,34,20.90
2006,07,23,01,35,20.90
2006,07,23,01,36,20.90
2006,07,23,01,37,21.00
2006,07,23,01,38,21.00
2006,07,23,01,39,21.00
2006,07,23,01,40,21.00
2006,07,23,01,41,21.00
2006,07,23,01,42,21.00
2006,07,23,01,43,21.00
2006,07,23,01,44,21.00
2006,07,23,01,45,21.00
2006,07,23,01,46,21.00
2006,07,23,01,47,21.00
2006,07,23,01,48,21.00
2006,07,23,01,49,21.00
2006,07,23,01,50,21.00
2006,07,23,01,51,20.90
2006,07,23,01,52,20.90
2006,07,23,01,53,20.90
2006,07,23,01,54,20.90
2006,07,23,01,55,20.90
2006,07,23,01,56,20.80
2006,07,23,01,57,20.80
2006,07,23,01,58,20.80
2006,07,23,01,59,20.80
2006,07,23,02,00,20.80
2006,07,23,02,01,20.80
2006,07,23,02,02,20.70
2006,07,23,02,03,20.70
2006,07,23,02,04,20.70
2006,07,23,02,05,20.70
2006,07,23,02,06,20.70
2006,07,23,02,07,20.70
2006,07,23,02,08,20.60
2006,07,23,02,09,20.60
2006,07,23,02,10,20.60
2006,07,23,02,11,20.60
2006,07,23,02,12,20.60
2006,07,23,02,13,20.60
2006,07,23,02,14,20.60
2006,07,23,02,15,20.60
2006,07,23,02,16,20.60
2006,07,23,02,17,20.60
2006,07,23,02,18,20.60
2006,07,23,02,19,20.60
2006,07,23,02,20,20.60
2006,07,23,02,21,20.60
2006,07,23,02,22,20.60
2006,07,23,02,23,20.60
2006,07,23,02,24,20.70
2006,07,23,02,25,20.70
2006,07,23,02,26,20.80
2006,07,23,02,27,20.80
2006,07,23,02,28,20.90
2006,07,23,02,29,20.90
2006,07,23,02,30,21.00
2006,07,23,02,31,21.00
2006,07,23,02,32,21.00
2006,07,23,02,33,21.10
2006,07,23,02,34,21.10
2006,07,23,02,35,21.10
2006,07,23,02,36,21.10
2006,07,23,02,37,21.10
2006,07,23,02,38,21.10
2006,07,23,02,39,21.10
2006,07,23,02,40,21.00
2006,07,23,02,41,21.00
2006,07,23,02,42,21.00
2006,07,23,02,43,21.00
2006,07,23,02,44,21.00
2006,07,23,02,45,21.00
2006,07,23,02,46,21.00
2006,07,23,02,47,21.00
2006,07,23,02,48,21.00
2006,07,23,02,49,21.00
2006,07,23,02,50,21.00
2006,07,23,02,51,21.00
2006,07,23,02,52,21.00
2006,07,23,02,53,21.00
2006,07,23,02,54,21.00
2006,07,23,02,55,21.00
2006,07,23,02,56,21.00
2006,07,23,02,57,20.90
2006,07,23,02,58,20.90
2006,07,23,02,59,20.90
2006,07,23,03,00,20.90
2006,07,23,03,01,20.90
2006,07,23,03,02,20.90
2006,07,23,03,03,20.80
2006,07,23,03,04,20.80
2006,07,23,03,05,20.80
2006,07,23,03,06,20.80
2006,07,23,03,07,20.80
2006,07,23,03,08,20.80
2006,07,23,03,09,20.70
2006,07,23,03,10,20.70
2006,07,23,03,11,20.70
2006,07,23,03,12,20.60
2006,07,23,03,13,20.60
2006,07,23,03,14,20.60
2006,07,23,03,15,20.60
2006,07,23,03,16,20.50
2006,07,23,03,17,20.50
2006,07,23,03,18,20.50
2006,07,23,03,19,20.50
2006,07,23,03,20,20.40
2006,07,23,03,21,20.40
2006,07,23,03,22,20.40
2006,07,23,03,23,20.40
2006,07,23,03,24,20.40
2006,07,23,03,25,20.40
2006,07,23,03,26,20.30
2006,07,23,03,27,20.30
2006,07,23,03,28,20.30
2006,07,23,03,29,20.30
2006,07,23,03,30,20.20
2006,07,23,03,31,20.20
2006,07,23,03,32,20.20
2006,07,23,03,33,20.20
2006,07,23,03,34,20.20
2006,07,23,03,35,20.20
2006,07,23,03,36,20.20
2006,07,23,03,37,20.10
2006,07,23,03,38,20.10
2006,07,23,03,39,20.10
2006,07,23,03,40,20.00
2006,07,23,03,41,19.90
2006,07,23,03,42,19.90
2006,07,23,03,43,19.90
2006,07,23,03,44,19.90
2006,07,23,03,45,19.90
2006,07,23,03,46,19.90
2006,07,23,03,47,19.90
2006,07,23,03,48,19.90
2006,07,23,03,49,19.80
2006,07,23,03,50,19.80
2006,07,23,03,51,19.80
2006,07,23,03,52,19.70
2006,07,23,03,53,19.70
2006,07,23,03,54,19.70
2006,07,23,03,55,19.70
2006,07,23,03,56,19.70
2006,07,23,03,57,19.60
2006,07,23,03,58,19.60
2006,07,23,03,59,19.60
2006,07,23,04,00,19.60
2006,07,23,04,01,19.60
2006,07,23,04,02,19.60
2006,07,23,04,03,19.60
2006,07,23,04,04,19.60
2006,07,23,04,05,19.50
2006,07,23,04,06,19.50
2006,07,23,04,07,19.50
2006,07,23,04,08,19.50
2006,07,23,04,09,19.50
2006,07,23,04,10,19.50
2006,07,23,04,11,19.50
2006,07,23,04,12,19.50
2006,07,23,04,13,19.50
2006,07,23,04,14,19.40
2006,07,23,04,15,19.40
2006,07,23,04,16,19.40
2006,07,23,04,17,19.40
2006,07,23,04,18,19.40
2006,07,23,04,19,19.40
2006,07,23,04,20,19.40
2006,07,23,04,21,19.40
2006,07,23,04,22,19.40
2006,07,23,04,23,19.30
2006,07,23,04,24,19.30
2006,07,23,04,25,19.30
2006,07,23,04,26,19.30
2006,07,23,04,27,19.30
2006,07,23,04,28,19.30
2006,07,23,04,29,19.30
2006,07,23,04,30,19.30
2006,07,23,04,31,19.30
2006,07,23,04,32,19.30
2006,07,23,04,33,19.30
2006,07,23,04,34,19.30
2006,07,23,04,35,19.30
2006,07,23,04,36,19.30
2006,07,23,04,37,19.30
2006,07,23,04,38,19.30
2006,07,23,04,39,19.30
2006,07,23,04,40,19.30
2006,07,23,04,41,19.30
2006,07,23,04,42,19.30
2006,07,23,04,43,19.30
2006,07,23,04,44,19.30
2006,07,23,04,45,19.30
2006,07,23,04,46,19.30
2006,07,23,04,47,19.30
2006,07,23,04,48,19.30
2006,07,23,04,49,19.30
2006,07,23,04,50,19.30
2006,07,23,04,51,19.30
2006,07,23,04,52,19.30
2006,07,23,04,53,19.20
2006,07,23,04,54,19.20
2006,07,23,04,55,19.20
2006,07,23,04,56,19.20
2006,07,23,04,57,19.10
2006,07,23,04,58,19.10
2006,07,23,04,59,19.10
2006,07,23,05,00,19.10
2006,07,23,05,01,19.10
2006,07,23,05,02,19.10
2006,07,23,05,03,19.10
2006,07,23,05,04,19.10
2006,07,23,05,05,19.00
2006,07,23,05,06,18.90
2006,07,23,05,07,18.90
2006,07,23,05,08,18.90
2006,07,23,05,09,18.90
2006,07,23,05,10,18.90
2006,07,23,05,11,18.90
2006,07,23,05,12,18.90
2006,07,23,05,13,18.90
2006,07,23,05,14,18.90
2006,07,23,05,15,18.90
2006,07,23,05,16,18.90
2006,07,23,05,17,18.90
2006,07,23,05,18,18.90
2006,07,23,05,19,18.90
2006,07,23,05,20,18.80
2006,07,23,05,21,18.80
2006,07,23,05,22,18.80
2006,07,23,05,23,18.80
2006,07,23,05,24,18.80
2006,07,23,05,25,18.80
2006,07,23,05,26,18.80
2006,07,23,05,27,18.80
2006,07,23,05,28,18.80
2006,07,23,05,29,18.80
2006,07,23,05,30,18.80
2006,07,23,05,31,18.80
2006,07,23,05,32,18.70
2006,07,23,05,33,18.70
2006,07,23,05,34,18.70
2006,07,23,05,35,18.70
2006,07,23,05,36,18.70
2006,07,23,05,37,18.70
2006,07,23,05,38,18.70
2006,07,23,05,39,18.70
2006,07,23,05,40,18.70
2006,07,23,05,41,18.70
2006,07,23,05,42,18.60
2006,07,23,05,43,18.60
2006,07,23,05,44,18.60
2006,07,23,05,45,18.60
2006,07,23,05,46,18.60
2006,07,23,05,47,18.60
2006,07,23,05,48,18.60
2006,07,23,05,49,18.70
2006,07,23,05,50,18.70
2006,07,23,05,51,18.70
2006,07,23,05,52,18.70
2006,07,23,05,53,18.70
2006,07,23,05,54,18.80
2006,07,23,05,55,18.80
2006,07,23,05,56,18.80
2006,07,23,05,57,18.80
2006,07,23,05,58,18.80
2006,07,23,05,59,18.80
2006,07,23,06,00,18.80
2006,07,23,06,01,18.80
2006,07,23,06,02,18.80
2006,07,23,06,03,18.80
2006,07,23,06,04,18.80
2006,07,23,06,05,18.90
2006,07,23,06,06,18.90
2006,07,23,06,07,18.90
2006,07,23,06,08,18.80
2006,07,23,06,09,18.90
2006,07,23,06,10,18.90
2006,07,23,06,11,18.90
2006,07,23,06,12,18.90
2006,07,23,06,13,18.90
2006,07,23,06,14,18.90
2006,07,23,06,15,18.90
2006,07,23,06,16,18.90
2006,07,23,06,17,18.90
2006,07,23,06,18,18.90
2006,07,23,06,19,18.90
2006,07,23,06,20,18.90
2006,07,23,06,21,18.90
2006,07,23,06,22,18.90
2006,07,23,06,23,19.00
2006,07,23,06,24,19.10
2006,07,23,06,25,19.10
2006,07,23,06,26,19.10
2006,07,23,06,27,19.10
2006,07,23,06,28,19.10
2006,07,23,06,29,19.10
2006,07,23,06,30,19.10
2006,07,23,06,31,19.10
2006,07,23,06,32,19.20
2006,07,23,06,33,19.20
2006,07,23,06,34,19.20
2006,07,23,06,35,19.30
2006,07,23,06,36,19.30
2006,07,23,06,37,19.30
2006,07,23,06,38,19.40
2006,07,23,06,39,19.40
2006,07,23,06,40,19.50
2006,07,23,06,41,19.50
2006,07,23,06,42,19.60
2006,07,23,06,43,19.60
2006,07,23,06,44,19.60
2006,07,23,06,45,19.70
2006,07,23,06,46,19.70
2006,07,23,06,47,19.70
2006,07,23,06,48,19.70
2006,07,23,06,49,19.70
2006,07,23,06,50,19.80
2006,07,23,06,51,19.80
2006,07,23,06,52,19.80
2006,07,23,06,53,19.80
2006,07,23,06,54,19.80
2006,07,23,06,55,19.80
2006,07,23,06,56,19.90
2006,07,23,06,57,19.90
2006,07,23,06,58,19.90
2006,07,23,06,59,19.90
2006,07,23,07,00,19.90
2006,07,23,07,01,19.90
2006,07,23,07,02,19.90
2006,07,23,07,03,19.90
2006,07,23,07,04,19.90
2006,07,23,07,05,19.90
2006,07,23,07,06,20.00
2006,07,23,07,07,20.10
2006,07,23,07,08,20.20
2006,07,23,07,09,20.20
2006,07,23,07,10,20.20
2006,07,23,07,11,20.20
2006,07,23,07,12,20.20
2006,07,23,07,13,20.20
2006,07,23,07,14,20.20
2006,07,23,07,15,20.30
2006,07,23,07,16,20.30
2006,07,23,07,17,20.40
2006,07,23,07,18,20.50
2006,07,23,07,19,20.60
2006,07,23,07,20,20.70
2006,07,23,07,21,20.70
2006,07,23,07,22,20.80
2006,07,23,07,23,20.90
2006,07,23,07,24,21.10
2006,07,23,07,25,21.30
2006,07,23,07,26,21.50
2006,07,23,07,27,21.60
2006,07,23,07,28,21.70
2006,07,23,07,29,21.90
2006,07,23,07,30,22.00
2006,07,23,07,31,22.20
2006,07,23,07,32,22.30
2006,07,23,07,33,22.50
2006,07,23,07,34,22.60
2006,07,23,07,35,22.60
2006,07,23,07,36,22.80
2006,07,23,07,37,22.90
2006,07,23,07,38,23.10
2006,07,23,07,39,23.20
2006,07,23,07,40,23.20
2006,07,23,07,41,23.30
2006,07,23,07,42,23.30
2006,07,23,07,43,23.50
2006,07,23,07,44,23.60
2006,07,23,07,45,23.60
2006,07,23,07,46,23.60
2006,07,23,07,47,23.70
2006,07,23,07,48,23.70
2006,07,23,07,49,23.70
2006,07,23,07,50,23.70
2006,07,23,07,51,23.80
2006,07,23,07,52,23.80
2006,07,23,07,53,23.90
2006,07,23,07,54,23.90
2006,07,23,07,55,24.00
2006,07,23,07,56,24.10
2006,07,23,07,57,24.10
2006,07,23,07,58,24.10
2006,07,23,07,59,24.20
2006,07,23,08,00,24.30
2006,07,23,08,01,24.30
2006,07,23,08,02,24.30
2006,07,23,08,03,24.30
2006,07,23,08,04,24.30
2006,07,23,08,05,24.30
2006,07,23,08,06,24.30
2006,07,23,08,07,24.40
2006,07,23,08,08,24.40
2006,07,23,08,09,24.40
2006,07,23,08,10,24.40
2006,07,23,08,11,24.40
2006,07,23,08,12,24.40
2006,07,23,08,13,24.50
2006,07,23,08,14,24.50
2006,07,23,08,15,24.50
2006,07,23,08,16,24.40
2006,07,23,08,17,24.40
2006,07,23,08,18,24.50
2006,07,23,08,19,24.50
2006,07,23,08,20,24.50
2006,07,23,08,21,24.60
2006,07,23,08,22,24.70
2006,07,23,08,23,24.70
2006,07,23,08,24,24.80
2006,07,23,08,25,24.90
2006,07,23,08,26,24.90
2006,07,23,08,27,25.00
2006,07,23,08,28,25.10
2006,07,23,08,29,25.10
2006,07,23,08,30,25.20
2006,07,23,08,31,25.30
2006,07,23,08,32,25.30
2006,07,23,08,33,25.40
2006,07,23,08,34,25.40
2006,07,23,08,35,25.50
2006,07,23,08,36,25.60
2006,07,23,08,37,25.50
2006,07,23,08,38,25.50
2006,07,23,08,39,25.60
2006,07,23,08,40,25.60
2006,07,23,08,41,25.70
2006,07,23,08,42,25.80
2006,07,23,08,43,25.80
2006,07,23,08,44,25.90
2006,07,23,08,45,25.90
2006,07,23,08,46,26.00
2006,07,23,08,47,26.00
2006,07,23,08,48,26.10
2006,07,23,08,49,26.10
2006,07,23,08,50,26.10
2006,07,23,08,51,26.10
2006,07,23,08,52,26.20
2006,07,23,08,53,26.30
2006,07,23,08,54,26.30
2006,07,23,08,55,26.30
2006,07,23,08,56,26.40
2006,07,23,08,57,26.40
2006,07,23,08,58,26.50
2006,07,23,08,59,26.60
2006,07,23,09,00,26.60
2006,07,23,09,01,26.60
2006,07,23,09,02,26.60
2006,07,23,09,03,26.60
2006,07,23,09,04,26.60
2006,07,23,09,05,26.60
2006,07,23,09,06,26.60
2006,07,23,09,07,26.60
2006,07,23,09,08,26.70
2006,07,23,09,09,26.70
2006,07,23,09,10,26.70
2006,07,23,09,11,26.80
2006,07,23,09,12,26.90
2006,07,23,09,13,26.90
2006,07,23,09,14,26.90
2006,07,23,09,15,26.90
2006,07,23,09,16,26.90
2006,07,23,09,17,26.90
2006,07,23,09,18,26.90
2006,07,23,09,19,26.80
2006,07,23,09,20,26.90
2006,07,23,09,21,27.00
2006,07,23,09,22,27.10
2006,07,23,09,23,27.20
2006,07,23,09,24,27.20
2006,07,23,09,25,27.30
2006,07,23,09,26,27.30
2006,07,23,09,27,27.40
2006,07,23,09,28,27.40
2006,07,23,09,29,27.30
2006,07,23,09,30,27.40
2006,07,23,09,31,27.40
2006,07,23,09,32,27.40
2006,07,23,09,33,27.40
2006,07,23,09,34,27.40
2006,07,23,09,35,27.60
2006,07,23,09,36,27.60
2006,07,23,09,37,27.70
2006,07,23,09,38,27.80
2006,07,23,09,39,27.70
2006,07,23,09,40,27.70
2006,07,23,09,41,27.70
2006,07,23,09,42,27.70
2006,07,23,09,43,27.80
2006,07,23,09,44,27.80
2006,07,23,09,45,27.80
2006,07,23,09,46,27.80
2006,07,23,09,47,27.80
2006,07,23,09,48,27.80
2006,07,23,09,49,27.90
2006,07,23,09,50,28.00
2006,07,23,09,51,28.10
2006,07,23,09,52,28.20
2006,07,23,09,53,28.20
2006,07,23,09,54,28.20
2006,07,23,09,55,28.20
2006,07,23,09,56,28.20
2006,07,23,09,57,28.30
2006,07,23,09,58,28.30
2006,07,23,09,59,28.30
2006,07,23,10,00,28.30
2006,07,23,10,01,28.40
2006,07,23,10,02,28.40
2006,07,23,10,03,28.40
2006,07,23,10,04,28.30
2006,07,23,10,05,28.20
2006,07,23,10,06,28.20
2006,07,23,10,07,28.20
2006,07,23,10,08,28.10
2006,07,23,10,09,28.10
2006,07,23,10,10,28.10
2006,07,23,10,11,28.10
2006,07,23,10,12,28.10
2006,07,23,10,13,28.20
2006,07,23,10,14,28.20
2006,07,23,10,15,28.20
2006,07,23,10,16,28.20
2006,07,23,10,17,28.20
2006,07,23,10,18,28.10
2006,07,23,10,19,28.10
2006,07,23,10,20,28.10
2006,07,23,10,21,28.10
2006,07,23,10,22,28.10
2006,07,23,10,23,28.20
2006,07,23,10,24,28.20
2006,07,23,10,25,28.30
2006,07,23,10,26,28.30
2006,07,23,10,27,28.40
2006,07,23,10,28,28.50
2006,07,23,10,29,28.60
2006,07,23,10,30,28.50
2006,07,23,10,31,28.60
2006,07,23,10,32,28.70
2006,07,23,10,33,28.80
2006,07,23,10,34,28.80
2006,07,23,10,35,28.90
2006,07,23,10,36,28.90
2006,07,23,10,37,28.90
2006,07,23,10,38,28.90
2006,07,23,10,39,28.90
2006,07,23,10,40,28.90
2006,07,23,10,41,28.90
2006,07,23,10,42,28.90
2006,07,23,10,43,28.90
2006,07,23,10,44,29.00
2006,07,23,10,45,29.10
2006,07,23,10,46,29.20
2006,07,23,10,47,29.20
2006,07,23,10,48,29.30
2006,07,23,10,49,29.30
2006,07,23,10,50,29.30
2006,07,23,10,51,29.30
2006,07,23,10,52,29.20
2006,07,23,10,53,29.20
2006,07,23,10,54,29.20
2006,07,23,10,55,29.20
2006,07,23,10,56,29.20
2006,07,23,10,57,29.10
2006,07,23,10,58,29.10
2006,07,23,10,59,29.10
2006,07,23,11,00,29.20
2006,07,23,11,01,29.10
2006,07,23,11,02,28.90
2006,07,23,11,03,28.90
2006,07,23,11,04,29.10
2006,07,23,11,05,29.10
2006,07,23,11,06,29.20
2006,07,23,11,07,29.30
2006,07,23,11,08,29.30
2006,07,23,11,09,29.30
2006,07,23,11,10,29.30
2006,07,23,11,11,29.20
2006,07,23,11,12,29.10
2006,07,23,11,13,29.10
2006,07,23,11,14,29.20
2006,07,23,11,15,29.30
2006,07,23,11,16,29.30
2006,07,23,11,17,29.30
2006,07,23,11,18,29.40
2006,07,23,11,19,29.50
2006,07,23,11,20,29.60
2006,07,23,11,21,29.60
2006,07,23,11,22,29.60
2006,07,23,11,23,29.60
2006,07,23,11,24,29.70
2006,07,23,11,25,29.80
2006,07,23,11,26,29.90
2006,07,23,11,27,30.00
2006,07,23,11,28,30.00
2006,07,23,11,29,30.00
2006,07,23,11,30,30.10
2006,07,23,11,31,30.10
2006,07,23,11,32,30.20
2006,07,23,11,33,30.30
2006,07,23,11,34,30.40
2006,07,23,11,35,30.40
2006,07,23,11,36,30.40
2006,07,23,11,37,30.50
2006,07,23,11,38,30.60
2006,07,23,11,39,30.60
2006,07,23,11,40,30.50
2006,07,23,11,41,30.50
2006,07,23,11,42,30.60
2006,07,23,11,43,30.80
2006,07,23,11,44,30.90
2006,07,23,11,45,30.90
2006,07,23,11,46,31.00
2006,07,23,11,47,31.10
2006,07,23,11,48,31.20
2006,07,23,11,49,31.20
2006,07,23,11,50,31.20
2006,07,23,11,51,31.20
2006,07,23,11,52,31.20
2006,07,23,11,53,31.00
2006,07,23,11,54,31.00
2006,07,23,11,55,31.00
2006,07,23,11,56,31.10
2006,07,23,11,57,31.10
2006,07,23,11,58,31.20
2006,07,23,11,59,31.30
2006,07,23,12,00,31.40
2006,07,23,12,01,31.40
2006,07,23,12,02,31.40
2006,07,23,12,03,31.30
2006,07,23,12,04,31.20
2006,07,23,12,05,31.00
2006,07,23,12,06,30.90
2006,07,23,12,07,31.00
2006,07,23,12,08,30.90
2006,07,23,12,09,30.60
2006,07,23,12,10,30.60
2006,07,23,12,11,30.70
2006,07,23,12,12,30.80
2006,07,23,12,13,30.80
2006,07,23,12,14,30.80
2006,07,23,12,15,30.80
2006,07,23,12,16,30.80
2006,07,23,12,17,30.90
2006,07,23,12,18,31.00
2006,07,23,12,19,31.00
2006,07,23,12,20,31.10
2006,07,23,12,21,31.00
2006,07,23,12,22,31.10
2006,07,23,12,23,31.10
2006,07,23,12,24,31.20
2006,07,23,12,25,31.20
2006,07,23,12,26,31.30
2006,07,23,12,27,31.20
2006,07,23,12,28,31.30
2006,07,23,12,29,31.40
2006,07,23,12,30,31.50
2006,07,23,12,31,31.50
2006,07,23,12,32,31.60
2006,07,23,12,33,31.80
2006,07,23,12,34,31.80
2006,07,23,12,35,31.70
2006,07,23,12,36,31.70
2006,07,23,12,37,31.80
2006,07,23,12,38,32.00
2006,07,23,12,39,32.10
2006,07,23,12,40,32.10
2006,07,23,12,41,32.00
2006,07,23,12,42,31.90
2006,07,23,12,43,32.00
2006,07,23,12,44,31.90
2006,07,23,12,45,31.90
2006,07,23,12,46,32.00
2006,07,23,12,47,32.10
2006,07,23,12,48,32.20
2006,07,23,12,49,32.20
2006,07,23,12,50,32.20
2006,07,23,12,51,32.30
2006,07,23,12,52,32.30
2006,07,23,12,53,32.30
2006,07,23,12,54,32.20
2006,07,23,12,55,32.30
2006,07,23,12,56,32.30
2006,07,23,12,57,32.30
2006,07,23,12,58,32.40
2006,07,23,12,59,32.30
2006,07,23,13,00,32.40
2006,07,23,13,01,32.50
2006,07,23,13,02,32.50
2006,07,23,13,03,32.50
2006,07,23,13,04,32.50
2006,07,23,13,05,32.50
2006,07,23,13,06,32.50
2006,07,23,13,07,32.60
2006,07,23,13,08,32.80
2006,07,23,13,09,32.80
2006,07,23,13,10,32.90
2006,07,23,13,11,32.90
2006,07,23,13,12,32.80
2006,07,23,13,13,32.60
2006,07,23,13,14,32.60
2006,07,23,13,15,32.50
2006,07,23,13,16,32.40
2006,07,23,13,17,32.40
2006,07,23,13,18,32.40
2006,07,23,13,19,32.20
2006,07,23,13,20,32.30
2006,07,23,13,21,32.40
2006,07,23,13,22,32.40
2006,07,23,13,23,32.50
2006,07,23,13,24,32.50
2006,07,23,13,25,32.60
2006,07,23,13,26,32.70
2006,07,23,13,27,32.60
2006,07,23,13,28,32.50
2006,07,23,13,29,32.60
2006,07,23,13,30,32.80
2006,07,23,13,31,32.80
2006,07,23,13,32,32.90
2006,07,23,13,33,33.00
2006,07,23,13,34,33.10
2006,07,23,13,35,33.20
2006,07,23,13,36,33.20
2006,07,23,13,37,33.10
2006,07,23,13,38,33.20
2006,07,23,13,39,33.20
2006,07,23,13,40,33.20
2006,07,23,13,41,33.20
2006,07,23,13,42,33.20
2006,07,23,13,43,33.20
2006,07,23,13,44,33.30
2006,07,23,13,45,33.40
2006,07,23,13,46,33.30
2006,07,23,13,47,33.20
2006,07,23,13,48,33.40
2006,07,23,13,49,33.50
2006,07,23,13,50,33.60
2006,07,23,13,51,33.50
2006,07,23,13,52,33.30
2006,07,23,13,53,33.10
2006,07,23,13,54,33.00
2006,07,23,13,55,33.10
2006,07,23,13,56,32.90
2006,07,23,13,57,32.90
2006,07,23,13,58,32.80
2006,07,23,13,59,32.80
2006,07,23,14,00,32.80
2006,07,23,14,01,32.90
2006,07,23,14,02,33.00
2006,07,23,14,03,33.10
2006,07,23,14,04,33.10
2006,07,23,14,05,33.20
2006,07,23,14,06,33.40
2006,07,23,14,07,33.40
2006,07,23,14,08,33.40
2006,07,23,14,09,33.40
2006,07,23,14,10,33.40
2006,07,23,14,11,33.20
2006,07,23,14,12,33.20
2006,07,23,14,13,33.20
2006,07,23,14,14,33.20
2006,07,23,14,15,33.40
2006,07,23,14,16,33.40
2006,07,23,14,17,33.40
2006,07,23,14,18,33.40
2006,07,23,14,19,33.20
2006,07,23,14,20,33.30
2006,07,23,14,21,33.30
2006,07,23,14,22,33.20
2006,07,23,14,23,33.40
2006,07,23,14,24,33.50
2006,07,23,14,25,33.50
2006,07,23,14,26,33.50
2006,07,23,14,27,33.50
2006,07,23,14,28,33.50
2006,07,23,14,29,33.50
2006,07,23,14,30,33.50
2006,07,23,14,31,33.50
2006,07,23,14,32,33.60
2006,07,23,14,33,33.60
2006,07,23,14,34,33.60
2006,07,23,14,35,33.60
2006,07,23,14,36,33.60
2006,07,23,14,37,33.60
2006,07,23,14,38,33.60
2006,07,23,14,39,33.60
2006,07,23,14,40,33.60
2006,07,23,14,41,33.50
2006,07,23,14,42,33.60
2006,07,23,14,43,33.60
2006,07,23,14,44,33.60
2006,07,23,14,45,33.60
2006,07,23,14,46,33.50
2006,07,23,14,47,33.60
2006,07,23,14,48,33.60
2006,07,23,14,49,33.50
2006,07,23,14,50,33.50
2006,07,23,14,51,33.50
2006,07,23,14,52,33.50
2006,07,23,14,53,33.50
2006,07,23,14,54,33.50
2006,07,23,14,55,33.50
2006,07,23,14,56,33.40
2006,07,23,14,57,33.40
2006,07,23,14,58,33.40
2006,07,23,14,59,33.50
2006,07,23,15,00,33.50
2006,07,23,15,01,33.60
2006,07,23,15,02,33.60
2006,07,23,15,03,33.60
2006,07,23,15,04,33.50
2006,07,23,15,05,33.50
2006,07,23,15,06,33.40
2006,07,23,15,07,33.40
2006,07,23,15,08,33.50
2006,07,23,15,09,33.60
2006,07,23,15,10,33.70
2006,07,23,15,11,33.80
2006,07,23,15,12,33.90
2006,07,23,15,13,34.10
2006,07,23,15,14,34.10
2006,07,23,15,15,34.10
2006,07,23,15,16,34.10
2006,07,23,15,17,34.10
2006,07,23,15,18,34.10
2006,07,23,15,19,34.00
2006,07,23,15,20,33.90
2006,07,23,15,21,33.80
2006,07,23,15,22,33.80
2006,07,23,15,23,33.90
2006,07,23,15,24,33.80
2006,07,23,15,25,33.80
2006,07,23,15,26,33.80
2006,07,23,15,27,33.80
2006,07,23,15,28,34.00
2006,07,23,15,29,34.00
2006,07,23,15,30,34.00
2006,07,23,15,31,34.10
2006,07,23,15,32,34.10
2006,07,23,15,33,34.20
2006,07,23,15,34,34.20
2006,07,23,15,35,34.20
2006,07,23,15,36,34.20
2006,07,23,15,37,34.30
2006,07,23,15,38,34.30
2006,07,23,15,39,34.20
2006,07,23,15,40,34.20
2006,07,23,15,41,34.10
2006,07,23,15,42,34.10
2006,07,23,15,43,34.10
2006,07,23,15,44,34.00
2006,07,23,15,45,33.90
2006,07,23,15,46,33.80
2006,07,23,15,47,33.70
2006,07,23,15,48,33.70
2006,07,23,15,49,33.60
2006,07,23,15,50,33.60
2006,07,23,15,51,33.60
2006,07,23,15,52,33.60
2006,07,23,15,53,33.50
2006,07,23,15,54,33.50
2006,07,23,15,55,33.60
2006,07,23,15,56,33.60
2006,07,23,15,57,33.60
2006,07,23,15,58,33.60
2006,07,23,15,59,33.70
2006,07,23,16,00,33.80
2006,07,23,16,01,33.80
2006,07,23,16,02,33.80
2006,07,23,16,03,33.80
2006,07,23,16,04,33.80
2006,07,23,16,05,33.80
2006,07,23,16,06,33.70
2006,07,23,16,07,33.70
2006,07,23,16,08,33.80
2006,07,23,16,09,33.80
2006,07,23,16,10,33.70
2006,07,23,16,11,33.70
2006,07,23,16,12,33.70
2006,07,23,16,13,33.70
2006,07,23,16,14,33.70
2006,07,23,16,15,33.70
2006,07,23,16,16,33.60
2006,07,23,16,17,33.50
2006,07,23,16,18,33.50
2006,07,23,16,19,33.40
2006,07,23,16,20,33.40
2006,07,23,16,21,33.30
2006,07,23,16,22,33.20
2006,07,23,16,23,33.20
2006,07,23,16,24,33.10
2006,07,23,16,25,33.10
2006,07,23,16,26,33.00
2006,07,23,16,27,32.90
2006,07,23,16,28,32.90
2006,07,23,16,29,32.90
2006,07,23,16,30,32.90
2006,07,23,16,31,32.90
2006,07,23,16,32,32.90
2006,07,23,16,33,32.90
2006,07,23,16,34,32.80
2006,07,23,16,35,32.60
2006,07,23,16,36,32.60
2006,07,23,16,37,32.50
2006,07,23,16,38,32.50
2006,07,23,16,39,32.50
2006,07,23,16,40,32.50
2006,07,23,16,41,32.40
2006,07,23,16,42,32.40
2006,07,23,16,43,32.40
2006,07,23,16,44,32.40
2006,07,23,16,45,32.30
2006,07,23,16,46,32.30
2006,07,23,16,47,32.30
2006,07,23,16,48,32.20
2006,07,23,16,49,32.10
2006,07,23,16,50,32.00
2006,07,23,16,51,31.90
2006,07,23,16,52,31.90
2006,07,23,16,53,31.90
2006,07,23,16,54,31.90
2006,07,23,16,55,31.90
2006,07,23,16,56,31.80
2006,07,23,16,57,31.70
2006,07,23,16,58,31.70
2006,07,23,16,59,31.70
2006,07,23,17,00,31.60
2006,07,23,17,01,31.60
2006,07,23,17,02,31.60
2006,07,23,17,03,31.50
2006,07,23,17,04,31.50
2006,07,23,17,05,31.40
2006,07,23,17,06,31.40
2006,07,23,17,07,31.40
2006,07,23,17,08,31.30
2006,07,23,17,09,31.30
2006,07,23,17,10,31.30
2006,07,23,17,11,31.30
2006,07,23,17,12,31.20
2006,07,23,17,13,31.20
2006,07,23,17,14,31.10
2006,07,23,17,15,31.10
2006,07,23,17,16,31.00
2006,07,23,17,17,31.00
2006,07,23,17,18,31.00
2006,07,23,17,19,31.00